Theta_e
288 283 280 283 286 287 287 287 286 289 292 288 289 290 292 294 293 293 294 296 298 299 302 303 304 304 305 306 308 312 311 311 312 308 304 302 302 303 303 303 304 304 304 304
284 280 285 288 288 286 285 283 283 287 290 289 288 287 290 291 291 293 293 293 295 297 300 302 303 304 304 305 306 309 310 310 310 308 305 304 303 303 303 304 304 305 304 304
283 286 290 287 287 287 287 284 284 284 289 290 287 284 287 290 292 293 294 295 295 296 296 298 300 301 302 304 305 307 309 309 308 307 304 301 300 300 300 301 302 304 304 304
286 290 288 287 286 288 283 290 288 286 284 280 287 278 286 289 290 293 293 294 294 295 296 297 296 295 297 301 305 307 308 308 307 305 302 300 299 298 300 301 301 302 303 302
281 285 285 283 285 288 285 289 288 285 282 281 282 279 284 287 287 289 290 292 293 294 293 293 293 295 296 299 303 304 305 306 306 303 302 300 300 300 300 300 300 301 302 302
283 288 286 285 288 285 286 285 283 280 278 274 280 279 282 286 289 291 295 291 292 292 293 293 294 295 294 297 299 301 302 303 304 303 302 300 300 299 298 298 298 299 301 301
276 280 286 288 284 286 283 281 275 272 271 272 281 278 282 288 291 292 289 289 289 290 291 291 290 291 292 293 297 300 299 299 302 302 301 301 299 299 297 297 298 298 299 300
267 267 278 280 278 278 280 280 276 269 271 275 280 276 282 290 293 294 290 290 289 288 289 289 289 289 289 292 293 297 298 298 299 300 300 300 299 299 297 298 298 298 298 300
267 268 276 279 280 282 278 276 283 278 279 275 277 281 287 291 289 287 288 287 286 287 288 288 288 289 289 290 291 294 297 298 297 298 299 299 299 298 297 297 298 298 299 299
272 265 275 277 281 283 279 283 276 277 269 266 276 277 280 286 284 285 285 285 285 286 286 287 287 288 289 290 291 292 294 296 297 297 298 299 298 298 297 297 297 298 298 299
273 271 270 274 275 272 275 275 277 279 277 271 272 275 282 282 284 283 283 284 284 284 285 285 285 286 287 288 289 289 290 292 295 296 297 296 297 297 296 296 297 298 298 298
274 271 265 267 274 277 273 272 273 270 269 273 276 275 285 284 284 284 283 284 283 283 283 283 283 284 284 286 287 287 288 289 290 293 295 296 296 296 296 295 296 297 297 298
273 269 261 264 270 274 269 273 273 272 275 270 271 274 285 284 282 283 282 282 282 282 281 281 280 280 281 283 284 284 286 287 289 291 292 294 294 295 295 295 296 296 296 296
277 265 262 260 264 268 266 269 272 271 269 270 271 275 280 283 281 281 281 280 279 279 279 278 277 277 278 280 281 281 282 285 287 288 288 289 292 293 294 295 295 295 295 295
272 262 263 267 269 269 269 268 270 270 272 269 272 274 278 279 279 278 279 279 277 276 276 276 275 275 275 276 279 279 280 282 283 284 284 285 287 289 291 293 294 294 294 294
272 263 266 264 269 270 268 270 272 273 274 275 276 275 277 281 279 277 276 276 275 274 274 275 275 274 273 274 276 276 277 278 280 280 280 282 284 285 286 287 290 292 293 293
268 263 262 258 269 268 260 269 272 272 273 272 270 272 278 274 274 273 274 274 273 273 273 273 273 273 273 273 275 274 274 275 275 276 277 279 281 283 283 285 286 287 289 291
264 261 261 259 260 253 270 274 275 272 273 274 274 274 275 274 275 275 276 274 273 273 272 273 273 272 272 273 274 274 274 273 273 273 274 275 278 280 282 283 283 283 284 284
271 264 257 253 252 264 269 271 270 269 270 274 273 274 274 276 275 273 276 276 274 274 274 273 274 274 272 271 273 273 272 271 271 271 272 273 275 277 279 281 282 284 284 284
273 270 261 258 252 252 268 273 276 274 267 274 275 273 273 274 270 270 275 275 274 274 274 272 273 274 272 271 272 272 270 269 268 269 271 272 274 275 276 278 281 284 284 284
258 258 258 259 254 259 268 273 275 264 265 276 276 274 274 271 272 274 276 275 275 274 273 273 272 272 271 271 270 270 269 267 268 269 270 271 273 274 275 276 279 282 284 284
262 260 257 258 256 252 273 272 267 270 272 276 276 274 273 274 275 274 274 273 273 272 272 272 270 271 270 270 269 268 266 267 266 267 268 269 271 273 274 274 278 279 281 283
264 265 263 265 262 268 274 273 275 273 271 274 273 274 272 271 272 272 271 272 271 272 271 271 269 269 269 269 268 266 266 265 265 265 265 267 270 271 272 273 274 275 277 279
268 270 268 267 266 269 272 271 273 273 273 274 272 271 271 270 270 271 271 271 270 270 269 269 268 268 267 268 267 266 265 264 262 262 263 265 267 267 270 271 273 274 274 275
270 269 268 268 271 273 273 275 273 274 273 272 272 271 269 269 269 269 268 268 269 268 268 268 266 266 266 267 266 265 264 262 261 262 263 264 265 266 267 269 271 273 275 275
272 269 267 266 271 271 273 273 272 271 271 271 269 268 270 269 267 267 266 267 267 266 266 265 265 265 265 265 264 263 262 262 260 260 262 262 263 264 265 266 268 273 275 277
Wind_Speed
13 8 18 33 24 25 22 20 22 22 11 10 20 25 21 13 15 19 18 18 21 22 18 12 12 11 10 10 15 18 19 17 15 13 14 12 13 11 9 8 11 12 10 9
11 21 32 13 17 22 23 25 29 29 16 13 20 25 20 15 14 19 22 24 22 20 20 21 20 15 17 19 16 18 21 20 18 14 12 11 13 12 11 9 11 14 13 12
23 26 21 18 18 22 25 27 31 25 16 13 16 25 27 17 17 21 29 30 24 23 23 21 18 18 13 17 19 19 21 22 21 19 12 7 5 5 6 9 10 12 13 12
23 31 32 26 26 24 29 26 26 23 19 17 8 22 29 16 16 20 16 23 24 23 21 18 15 10 13 15 17 18 19 20 19 20 16 18 16 14 11 13 11 12 14 16
17 26 23 17 32 28 30 22 22 16 14 14 20 12 33 8 8 10 10 11 14 16 10 10 10 10 10 8 14 13 15 17 19 19 20 17 17 13 8 10 13 12 12 13
22 18 19 21 19 13 14 22 10 1 4 13 23 22 27 16 16 19 24 6 7 9 9 9 8 8 7 3 7 8 11 13 18 19 19 21 20 16 12 14 12 11 10 10
22 10 10 10 24 18 16 8 8 5 8 15 18 14 20 9 13 20 4 6 8 10 12 13 13 11 10 8 4 7 9 8 15 17 18 18 16 15 16 17 14 15 12 11
14 17 20 19 17 12 13 13 11 10 11 10 17 11 14 20 35 24 8 10 16 15 14 13 12 9 10 10 9 2 6 6 9 14 15 13 12 10 10 14 13 13 13 14
11 17 35 26 24 19 4 14 20 21 21 7 6 8 10 16 11 11 14 16 14 14 14 14 14 13 12 11 10 6 3 5 7 9 9 10 11 12 11 14 12 12 12 12
9 22 13 23 24 8 15 14 6 4 5 6 7 8 9 9 10 11 12 12 12 12 13 12 12 14 14 13 14 13 9 5 4 8 8 9 9 8 8 12 13 13 12 14
16 7 20 15 9 23 21 10 7 9 8 6 3 3 6 9 9 10 11 11 11 12 12 13 12 13 14 14 15 15 16 14 6 4 6 7 6 7 7 8 9 11 11 14
8 8 9 25 27 14 14 12 13 8 11 9 11 17 7 9 9 9 12 12 12 12 11 12 13 14 14 14 14 15 15 14 12 9 2 1 3 5 6 7 8 8 11 12
14 4 12 16 8 14 17 20 18 17 11 5 5 5 6 9 11 12 11 12 12 13 14 13 14 15 15 15 15 15 15 14 13 8 7 3 2 3 4 5 7 7 9 11
14 4 1 12 18 20 23 25 20 13 10 14 16 21 19 11 11 12 12 13 14 14 15 13 13 14 14 14 14 15 15 15 14 14 14 13 10 4 3 4 6 7 7 10
6 5 5 16 23 21 24 28 23 18 16 16 23 22 17 7 9 12 14 14 15 16 16 15 15 14 14 15 14 14 14 15 14 14 14 14 13 13 12 5 4 6 7 7
9 7 12 18 22 22 25 23 21 18 19 17 16 12 15 11 14 14 14 14 14 14 14 15 15 15 15 15 15 14 15 15 13 13 14 14 14 13 12 11 10 2 4 6
9 2 4 7 16 21 12 7 6 13 10 9 6 10 13 10 14 15 15 13 14 15 15 16 16 15 14 13 14 14 14 13 13 13 14 14 13 13 12 11 10 9 7 1
5 2 3 8 8 4 5 17 12 13 5 7 6 10 14 7 10 11 11 11 12 14 14 14 12 13 14 13 13 12 13 12 13 14 14 14 13 12 12 11 10 9 6 6
2 1 4 1 2 11 6 11 15 9 4 7 9 11 12 2 6 11 10 11 10 10 9 9 11 12 11 13 12 10 11 13 14 15 14 14 13 12 12 11 11 7 5 6
7 2 4 5 3 5 0 10 11 9 3 2 5 8 10 10 4 3 9 9 9 9 9 11 14 11 13 15 14 14 13 14 15 15 14 12 12 11 12 11 10 8 3 3
5 5 6 8 6 8 1 7 9 4 6 9 1 2 5 3 0 4 5 4 5 6 8 8 9 9 11 13 13 13 13 14 14 12 12 12 12 11 11 11 9 9 7 5
7 6 4 4 4 8 2 10 3 5 5 7 2 2 4 3 2 3 2 3 4 5 7 8 8 8 9 9 10 10 11 12 12 12 12 12 12 10 9 12 10 10 9 7
10 8 6 7 8 7 12 10 5 4 4 4 1 1 3 6 4 5 5 5 2 2 5 5 6 7 5 5 7 9 10 11 13 12 11 11 11 11 11 10 10 8 8 8
8 7 12 11 7 10 11 5 6 6 7 2 1 2 2 5 6 7 7 6 6 4 4 4 6 6 6 5 6 5 8 9 10 10 10 10 9 11 9 7 7 7 7 7
11 5 12 20 18 14 13 14 7 8 6 6 5 4 4 4 6 7 7 8 7 7 6 6 8 8 7 6 5 4 7 9 11 10 9 8 7 9 9 7 7 7 5 6
12 21 13 17 11 10 9 5 6 5 6 6 3 4 5 4 6 6 6 6 6 7 8 8 9 9 8 7 7 8 7 10 10 11 9 8 8 8 8 9 9 11 14 14
Wind_Direction
196 204 216 225 208 229 246 264 267 262 246 233 241 249 249 234 249 264 262 251 247 248 248 244 224 214 203 202 192 189 178 181 178 180 179 176 181 177 174 174 165 168 171 168
247 230 236 255 227 237 247 254 258 267 264 259 271 264 256 245 249 259 264 263 257 248 242 237 236 224 208 205 198 191 184 182 184 183 188 189 181 182 172 167 168 169 172 170
258 259 256 242 258 257 250 244 251 254 268 266 264 269 265 256 258 255 252 253 253 251 249 247 242 234 226 204 199 193 189 186 184 181 174 169 144 143 162 171 170 175 169 165
256 268 275 275 265 255 257 254 259 263 265 255 213 262 265 263 248 248 253 243 244 243 245 246 244 237 222 212 198 197 190 185 185 175 176 179 181 179 185 179 174 175 172 170
283 266 264 299 253 260 262 282 251 259 261 260 250 272 273 195 253 278 287 261 234 225 209 216 226 230 217 186 184 183 185 183 182 184 184 182 184 187 171 177 172 175 173 175
279 264 271 265 281 305 318 261 247 291 263 241 238 220 265 250 251 252 259 278 69 57 58 43 33 31 9 357 147 158 178 184 181 185 190 192 190 181 170 169 167 169 170 169
328 281 290 236 265 260 279 267 232 232 220 242 243 244 236 263 234 247 236 78 44 38 48 39 26 16 2 354 265 156 166 179 181 185 191 194 192 188 178 172 171 169 175 176
341 322 3 328 297 294 235 224 222 225 233 252 234 226 223 249 240 257 57 65 58 46 39 38 27 15 1 353 356 146 162 179 176 182 192 192 188 188 180 181 178 181 182 180
319 298 314 303 336 314 303 251 268 262 289 294 254 299 232 253 257 70 66 62 55 47 39 32 25 15 6 360 355 345 173 194 187 175 179 195 191 189 182 185 186 182 180 178
294 300 301 322 311 292 339 286 265 240 246 248 235 256 265 336 46 62 57 57 53 47 41 35 29 19 10 8 5 10 0 188 193 164 168 191 188 190 181 178 186 185 178 174
315 281 301 338 347 331 320 6 326 297 225 258 271 223 8 45 43 72 61 58 54 50 46 41 31 23 18 12 16 14 14 11 13 130 155 171 181 190 177 171 179 178 172 171
311 292 325 308 305 81 22 6 359 348 333 311 284 274 66 64 60 66 68 58 53 52 46 43 36 28 22 18 19 18 11 7 359 353 77 152 177 186 181 171 176 164 171 172
315 308 337 327 329 326 349 327 329 314 277 261 297 290 53 68 53 48 54 52 50 42 40 35 35 28 18 18 18 17 12 1 351 355 10 34 134 188 195 177 173 161 156 167
353 346 275 284 288 300 304 304 311 300 302 327 298 314 322 12 54 47 51 49 43 37 34 30 31 30 20 15 18 16 10 5 7 18 26 23 10 351 178 167 169 164 159 164
302 270 274 281 288 290 289 293 296 285 271 268 288 292 340 45 43 36 34 35 33 30 24 22 25 23 19 13 16 16 13 9 10 19 22 15 11 15 12 1 182 168 163 169
290 277 297 285 283 290 294 288 285 276 274 267 268 290 358 345 29 34 37 30 28 26 20 16 19 19 18 12 11 13 14 10 11 23 22 13 12 12 11 5 357 54 167 174
293 290 296 285 307 313 298 331 7 348 38 341 346 351 339 39 43 33 21 28 23 24 18 15 15 13 12 8 8 18 11 4 12 20 18 14 9 16 9 4 9 9 357 7
232 304 267 274 316 319 96 2 333 338 36 13 348 352 338 74 67 49 33 28 25 21 19 17 14 8 9 4 8 15 11 7 16 17 13 8 5 4 12 16 13 9 360 360
226 42 296 177 273 274 351 5 344 336 348 9 350 358 355 281 146 59 38 28 28 20 17 9 4 9 5 5 1 10 11 14 16 12 6 2 359 357 2 2 13 6 2 351
283 235 179 297 258 251 26 331 327 310 177 3 14 0 358 359 348 43 15 27 21 17 11 6 3 13 8 4 359 9 12 8 10 0 350 350 352 356 359 350 347 360 358 353
313 309 258 272 276 272 257 341 317 35 313 345 345 9 13 24 16 331 3 37 22 13 3 13 1 6 6 3 3 6 3 8 350 343 343 348 353 354 355 344 344 345 359 21
272 276 256 262 245 290 325 13 351 224 286 327 338 16 323 320 302 317 319 349 2 356 350 3 356 356 359 9 9 1 5 349 339 337 343 349 350 354 351 348 347 351 354 8
258 202 244 218 232 269 298 286 200 160 245 274 300 328 346 309 323 332 332 344 348 2 355 2 343 337 340 23 18 356 349 345 342 341 342 343 342 347 346 347 347 351 358 3
251 231 251 268 235 248 259 244 181 179 210 250 261 303 278 287 309 311 314 324 325 342 341 357 332 334 333 359 4 357 348 343 336 331 333 332 337 336 340 339 339 342 353 351
250 266 257 264 270 269 257 257 178 180 183 200 205 225 239 258 272 297 305 308 312 320 328 339 328 322 326 325 340 358 354 341 330 325 325 326 330 327 327 325 323 326 321 318
250 253 246 258 259 244 262 166 140 179 219 201 186 262 262 275 282 293 285 295 310 311 327 320 315 312 310 319 322 327 337 327 320 318 321 323 319 323 322 320 317 314 309 311